www.pogodaiklimat.ru

Погода и климат >> Архив погоды >> Россия >> Чукотка >> Мыс Ванкарем


ПОГОДА на Мысе Ванкарем

  • Прогноз погоды на Мысе Ванкарем
  • Монитор погоды на Мысе Ванкарем
  • Климат города

АРХИВ ПОГОДЫ на Мысе Ванкарем

Время (UTC), дата Ветер
(напр.,м/с)
 
Видим.   Явления Облачность Т
(С)
Тd
(С)
f
(%)
Тe
(С)
Тes
(С)
Комфортность P
(гПа)
Po
(гПа)
Тmin
(С)
Tmax
(С)
R
(мм)
R24
(мм)
S
(см)
09 18.04 В 4
{6}
10 км 6/0
[Ci fib]
-4.9 -6.6 88 -11 -11 1026.6 1026.0
12 18.04 В 2
{5}
500 м туман ясно -5.7 -5.7 100 -10 -10 1027.6 1027.0
15 18.04 В 2
{5}
500 м туман ясно -5.7 -5.7 100 -10 -10 1027.6 1027.0
18 18.04 В 3
{5}
200 м туман ?/? -5.2 -5.2 100 -11 -11 1028.9 1028.3 -7.1
21 18.04 штиль 0
{4}
20 км {туман} 3/0
[Ac trans]
-5.0 -6.3 91 -6 -0 1029.4 1028.8
00 19.04 Ю 2
{3}
10 км {туман} 8/0
[Ci fib]
-4.2 -5.8 89 -8 -2 1030.0 1029.4
03 19.04 ЮЗ 2
{3}
200 м туман ясно -3.7 -3.7 100 -8 -4 1030.2 1029.6
06 19.04 штиль 0
{2}
200 м туман ?/? -4.4 -4.4 100 -6 -6 1030.4 1029.8 -3.0
09 19.04 штиль 0 200 м туман ясно -7.3 -7.3 100 -8 -8 1030.7 1030.1
12 19.04 З 1
{2}
200 м туман ?/? -9.1 -9.1 100 -12 -12 1030.6 1030.0
15 19.04 З 1
{2}
200 м туман ?/? -8.7 -8.7 100 -11 -11 1030.4 1029.8
18 19.04 З 1
{2}
200 м туман ?/? -7.9 -7.9 100 -10 -10 1030.0 1029.4 -11.2
21 19.04 С 3
{5}
20 км {туман} 8/1 200 м
[St Ci fib]
-8.2 -9.2 92 -14 -11 1029.7 1029.1
00 20.04 С 3
{5}
20 км {туман} 3/0
[Ci fib]
-8.0 -10.7 81 -14 -8 1029.1 1028.5
03 20.04 С 3
{5}
20 км ясно -6.9 -9.8 80 -13 -9 1028.5 1027.9
06 20.04 С 2
{4}
20 км ясно -7.8 -10.5 81 -12 -12 1028.0 1027.4 -5.0
09 20.04 СЗ 2
{4}
20 км ясно -8.5 -10.8 83 -13 -13 1028.2 1027.6
12 20.04 З 1
{3}
20 км ясно -10.4 -13.2 80 -13 -13 1028.0 1027.4
15 20.04 З 2
{4}
20 км 6/0
[Ci fib]
-11.2 -14.0 80 -16 -16 1027.8 1027.2
18 20.04 З 2
{4}
20 км 8/0
[Ac trans Ci fib]
-10.7 -13.5 80 -15 -15 1027.6 1027.0 -13.5
21 20.04 Ю 2
{4}
20 км 4/0
[Ci fib]
-10.4 -13.2 80 -15 -10 1028.0 1027.4
00 21.04 ЮВ 2
{4}
20 км ясно -10.2 -13.8 75 -15 -7 1027.6 1027.0
03 21.04 В 2
{4}
20 км ясно -10.7 -13.5 80 -15 -11 1027.3 1026.7
06 21.04 В 3
{5}
20 км ясно -12.5 -15.2 80 -19 -18 1026.9 1026.3 -9.0
09 21.04 ЮВ 3
{5}
20 км ясно -14.1 -17.6 75 -21 -21 1027.2 1026.5
12 21.04 ЮВ 4
{6}
20 км ясно -16.2 -19.6 75 -24 -24 1027.2 1026.5
15 21.04 В 2
{5}
20 км ясно -15.7 -19.1 75 -21 -21 1027.1 1026.4
18 21.04 ЮВ 2
{4}
20 км 8/0
[Ac lent Ci fib]
-14.3 -17.8 75 -19 -19 1026.9 1026.2 -17.0
21 21.04 СЗ 1
{3}
20 км 1/0
[Ac lent]
-13.4 -16.9 75 -16 -10 1027.8 1027.1
00 22.04 СЗ 1
{2}
20 км ясно -8.7 -12.0 77 -11 -2 1027.3 1026.7
03 22.04 СЗ 1
{3}
20 км ясно -6.7 -10.4 75 -9 -4 1026.5 1025.9
06 22.04 С 1
{2}
20 км ясно -7.3 -10.3 79 -10 -9 1026.5 1025.9 -5.0
09 22.04 СВ 1
{2}
20 км ясно -9.2 -11.7 82 -12 -12 1027.2 1026.6
12 22.04 Ю 1
{2}
20 км ясно -10.2 -13.0 80 -12 -12 1027.7 1027.1
15 22.04 штиль 0
{2}
20 км ясно -12.7 -16.2 75 -13 -13 1028.5 1027.8
18 22.04 С 1
{2}
20 км 4/0
[Ac lent]
-11.0 -13.8 80 -13 -12 1028.7 1028.1 -13.6
21 22.04 З 1
{3}
20 км 8/0
[Ac trans]
-10.2 -13.0 80 -12 -9 1027.7 1027.1
00 23.04 СЗ 2
{4}
20 км 9/0
[Ac trans]
-9.7 -12.3 81 -14 -11 1026.7 1026.1
03 23.04 СЗ 2
{4}
20 км ясно -7.8 -10.0 84 -12 -8 1025.7 1025.1
06 23.04 СЗ 2
{4}
20 км ясно -8.4 -10.7 83 -13 -12 1025.1 1024.5 -7.0
09 23.04 СЗ 2
{5}
20 км ясно -12.9 -15.6 80 -18 -18 1025.4 1024.8
12 23.04 СЗ 3
{6}
20 км ясно -13.7 -16.4 80 -20 -20 1024.6 1023.9
15 23.04 СЗ 3
{5}
20 км ясно -14.2 -16.9 80 -21 -21 1023.6 1023.0
18 23.04 СЗ 4
{6}
20 км 10/0
[Ac und]
-15.2 -17.9 80 -23 -23 1022.6 1022.0 -17.9
21 23.04 СЗ 6
{9}
20 км 10/0
[Ac und]
-14.0 -16.7 80 -23 -23 1022.6 1022.0
00 24.04 С 6
{8}
20 км 10/0
[Ac und]
-15.3 -18.0 80 -25 -24 1022.3 1021.7
03 24.04 С 6
{8}
10 км 10/9 600 м
[Sc Ac und]
-16.4 -19.0 80 -26 -26 1021.1 1020.5
06 24.04 С 7
{9}
10 км 10/10 600 м
[Sc]
-16.9 -18.8 85 -28 -28 1020.6 1020.0 -14.0
09 24.04 С 8
{10}
10 км позёмок {метель} 10/10 600 м
[Sc]
-15.7 -18.4 80 -27 -27 1020.5 1019.9
12 24.04 С 8
{11}
10 км позёмок {метель} 10/10 600 м
[Sc]
-15.3 -18.0 80 -26 -26 1019.8 1019.2
15 24.04 С 8
{10}
10 км позёмок {метель} 10/10 600 м
[Sc]
-14.9 -17.6 80 -26 -26 1019.7 1018.5
18 24.04 С 8
{11}
10 км позёмок {метель} 10/10 600 м
[Sc]
-14.1 -16.8 80 -25 -25 1018.7 1018.0 -16.9
21 24.04 С 8
{10}
10 км позёмок {метель} 10/10 600 м
[Sc]
-13.2 -15.9 80 -24 -24 1018.2 1017.6
00 25.04 С 4
{11}
10 км позёмок {метель} 10/10 600 м
[Sc]
-10.2 -13.0 80 -17 -17 1017.5 1016.9
03 25.04 С 8
{11}
10 км позёмок {метель} 10/10 600 м
[Sc]
-10.8 -13.6 80 -21 -21 1015.6 1015.0

 

Местоположение метеостанции Мыс Ванкарем (Чукотка, Россия): широта 67.83 долгота -175.00 высота над уровнем моря 5 м.

В архиве по умолчанию представлена погода на Мысе Ванкарем за последнюю неделю. Архивные данные за месяц целиком и за предыдущие месяцы, начиная с января 2011 года, Вы можете получить, выбрав интересующий диапазон дат из раскрывающегося списка и нажав кнопку "Ввод!".

Внимание! Время в таблицах - всемирное. Для получения местного времени необходимо прибавить поправку, которая на Мысе Ванкарем равна 12 ч.

Смотрите также архив погоды в соседних городах и на ближайших метеорологических станциях:

Погода в Эгвекиноте (Чукотка, Россия) (239 км)
Погода в Уэлене (Чукотка, Россия) (320 км)
Погода на Острове Врангеля (Чукотка, Россия) (369 км)

Пояснения к столбцам:

Ветер - указаны скорость ветра в м/с - средняя за 10 мин, порывы в срок и между сроками (в фигурных скобках) и направление, откуда дует ветер: С - северный, СВ - северо-восточный, В - восточный, ЮВ - юго-восточный, Ю - южный, ЮЗ - юго-западный, З - западный, СЗ - северо-западный.
Видимость - горизонтальная дальность видимости в метрах или километрах. При видимости от 1 до 10 км при отсутствии осадков обычно наблюдается дымка, при ухудшении видимости до 1 км и менее - туман. В сухую погоду видимость может ухудшаться дымом, пылью или мглою.
Явления - указаны атмосферные явления, наблюдавшиеся в срок или в последний час перед сроком; фигурными скобками обозначены явления, наблюдавшиеся между сроками (за 1-3 часа до срока); квадратными скобками обозначены град или гололедные отложения с указанием их диаметра в мм.
Облачность - указаны через наклонную черту общая и нижняя облачность в баллах и высота нижней границы облаков в метрах; квадратными скобками обозначены формы облаков: Ci - перистые, Cs - перисто-слоистые, Cc - перисто-кучевые, Ac - высококучевые, As - высокослоистые, Sc - слоисто-кучевые, Ns - слоисто-дождевые, Cu - кучевые, Cb - кучево-дождевые. Подробнее классификацию облаков см. в Атласе облаков (PDF).
T - Температура воздуха - температура, измеренная на высоте 2 м над землей.
Td - Температура точки росы - температура, при понижении до которой содержащийся в воздухе водяной пар достигнет насыщения.
f - Относительная влажность воздуха - влажноcть воздуха, измеренная на высоте 2 м над землей.
Te - Эффективная температура - температура, которую ощущает одетый по сезону человек в тени. Характеристика душности погоды. При расчете учитывается влияние влажности воздуха и скорости ветра на теплоощущения человека.
Tes - Эффективная температура на солнце - температура, которую ощущает человек, с поправкой на солнечный нагрев. Характеристика знойности погоды. Зависит от высоты солнца над горизонтом, облачности и скорости ветра. Ночью, в пасмурную погоду, а также при ветре 12 м/с и более поправка равна нулю.
P - Атмосферное давление - приведенное к уровню моря атмосферное давление.
Po - Атмосферное давление - измеренное на уровне метеостанции атмосферное давление.
Tmin - Минимальная температура - минимум температуры воздуха на высоте 2 м над землей.
Tmax - Максимальная температура - максимум температуры воздуха на высоте 2 м над землей.
R - Количество осадков - Количество выпавших осадков за период времени, мм. При наведении курсора мыши на число - период времени, за который выпало указанное количество осадков.
R24 - Количество осадков - Количество выпавших осадков за 24 часа, мм.
S - Снежный покров - Высота снежного покрова, см. При наведении курсора мыши на число - состояние снежного покрова и степень покрытия местности в баллах.